Weather History for Hayward, WI

Change the Weather History Date:

Saturday, January 19, 2013

  Actual Average Record
Temperature  
Mean Temperature 18 °F -  
Max Temperature 34 °F 26 °F 34 °F (2013)
Min Temperature 1 °F 7 °F -17 °F (2008)
Degree Days  
Heating Degree Days 48    
Moisture  
Dew Point 10 °F    
Average Humidity 73    
Maximum Humidity 93    
Minimum Humidity 50    
Precipitation  
Precipitation 0.00 in - - ()
Sea Level Pressure  
Sea Level Pressure 29.78 in    
Wind  
Wind Speed 5 mph (West)    
Max Wind Speed 17 mph    
Max Gust Speed 33 mph    
Visibility 7 miles    
Events Snow    
Averages and records for this station are not official NWS values.
T = Trace of Precipitation, MM = Missing Value Source: NWS Daily Summary

Daily Weather History Graph

Daily Weather History Graph

Search for Another Location

Airport:

Trip Planner

Search our weather history database for the weather conditions in past years. The results will help you decide how hot, cold, wet, or windy it might be!

Date:

Astronomy

Jan. 19, 2013 Rise Set
Actual Time 7:40 AM CST 4:52 PM CST
Civil Twilight 7:07 AM CST 5:25 PM CST
Nautical Twilight 6:31 AM CST 6:02 PM CST
Astronomical Twilight 5:55 AM CST 6:38 PM CST
Moon 11:22 AM CST (1/19) 1:10 AM CST (1/19)
Length of Visible Light 10h 18m
Length of Day
9h 12m
First Quarter, 57% of the Moon is Illuminated
Jan 19
First Quarter
Jan 26
Full
Feb 3
Last Quarter
Feb 10
New
Feb 17
First Quarter

Hourly Weather History & Observations

Time (CST) Temp. Windchill Dew Point Humidity Pressure Visibility Wind Dir Wind Speed Gust Speed Precip Events Conditions
12:41 AM 21.2 °F - 17.6 °F 86% 29.76 in 10.0 mi Calm Calm - N/A   Overcast
12:53 AM 21.9 °F - 17.1 °F 82% 29.82 in 10.0 mi Calm Calm - N/A   Overcast
1:53 AM 21.9 °F - 17.1 °F 82% 29.82 in 10.0 mi Calm Calm - N/A   Overcast
2:45 AM 21.2 °F 16.4 °F 17.6 °F 86% 29.74 in 10.0 mi SSE 3.5 mph - N/A   Mostly Cloudy
2:53 AM 21.0 °F - 17.1 °F 85% 29.79 in 10.0 mi Calm Calm - N/A   Mostly Cloudy
3:53 AM 21.0 °F - 17.1 °F 85% 29.75 in 9.0 mi Calm Calm - N/A   Mostly Cloudy
4:53 AM 21.9 °F - 18.0 °F 85% 29.72 in 9.0 mi Calm Calm - N/A   Clear
5:53 AM 23.0 °F 18.4 °F 19.0 °F 85% 29.71 in 8.0 mi South 3.5 mph - N/A   Clear
6:53 AM 23.0 °F - 19.0 °F 85% 29.73 in 7.0 mi Calm Calm - N/A   Clear
7:08 AM 21.2 °F - 19.4 °F 93% 29.68 in 8.0 mi Calm Calm - N/A   Mostly Cloudy
7:44 AM 21.2 °F - 17.6 °F 86% 29.66 in 6.0 mi Calm Calm - N/A   Overcast
7:53 AM 21.0 °F - 18.0 °F 88% 29.71 in 6.0 mi Calm Calm - N/A   Overcast
8:27 AM 19.4 °F - 17.6 °F 93% 29.64 in 4.0 mi Calm Calm - N/A   Partly Cloudy
8:53 AM 23.0 °F - 19.9 °F 88% 29.71 in 5.0 mi Calm Calm - N/A   Clear
9:53 AM 27.0 °F - 23.0 °F 85% 29.67 in 7.0 mi Calm Calm - N/A   Partly Cloudy
10:53 AM 30.9 °F 24.3 °F 26.1 °F 82% 29.67 in 10.0 mi Variable 6.9 mph - N/A   Mostly Cloudy
11:53 AM 32.0 °F 27.5 °F 26.1 °F 79% 29.64 in 10.0 mi WSW 4.6 mph - N/A   Overcast
12:00 PM 32.0 °F 24.2 °F 24.8 °F 75% 29.58 in 10.0 mi WSW 9.2 mph - N/A   Overcast
12:37 PM 32.0 °F 25.6 °F 24.8 °F 75% 29.59 in 10.0 mi Variable 6.9 mph 19.6 mph N/A   Overcast
12:53 PM 32.0 °F 23.6 °F 24.1 °F 73% 29.64 in 10.0 mi West 10.4 mph 20.7 mph N/A   Overcast
1:53 PM 32.0 °F 27.5 °F 24.1 °F 73% 29.63 in 10.0 mi Variable 4.6 mph - N/A   Overcast
2:04 PM 33.8 °F 27.7 °F 24.8 °F 70% 29.57 in 10.0 mi Variable 6.9 mph - N/A   Overcast
2:23 PM 33.8 °F 27.0 °F 23.0 °F 65% 29.56 in 10.0 mi West 8.1 mph - N/A   Overcast
2:45 PM 33.8 °F 23.9 °F 21.2 °F 60% 29.55 in 10.0 mi West 15.0 mph 21.9 mph N/A   Overcast
2:53 PM 34.0 °F 26.6 °F 21.0 °F 59% 29.60 in 10.0 mi West 9.2 mph 28.8 mph N/A   Mostly Cloudy
3:53 PM 30.9 °F 20.7 °F 14.0 °F 50% 29.62 in 10.0 mi West 13.8 mph 25.3 mph N/A   Overcast
4:31 PM 23.0 °F 12.4 °F 10.4 °F 59% 29.63 in 6.0 mi WNW 10.4 mph 28.8 mph 0.00 in Snow Light Snow
4:53 PM 19.9 °F 5.2 °F 8.1 °F 60% 29.74 in 4.0 mi WNW 17.3 mph 33.4 mph 0.00 in Snow Light Snow
5:07 PM 17.6 °F 5.7 °F 6.8 °F 63% 29.70 in 4.0 mi WNW 10.4 mph 27.6 mph 0.00 in Snow Light Snow
5:53 PM 12.9 °F 0.7 °F 1.0 °F 59% 29.83 in 9.0 mi WNW 9.2 mph 27.6 mph 0.00 in   Overcast
6:17 PM 10.4 °F -2.4 °F 3.2 °F 73% 29.79 in 2.5 mi WNW 9.2 mph 23.0 mph 0.00 in Snow Light Snow
6:24 PM 10.4 °F -3.3 °F 1.4 °F 67% 29.79 in 3.0 mi West 10.4 mph 23.0 mph 0.00 in Snow Light Snow
6:33 PM 8.6 °F -8.3 °F 1.4 °F 73% 29.80 in 1.8 mi West 15.0 mph 26.5 mph 0.00 in Snow Light Snow
6:48 PM 8.6 °F -5.5 °F 1.4 °F 73% 29.82 in 2.5 mi WNW 10.4 mph 23.0 mph 0.00 in Snow Light Snow
6:53 PM 9.0 °F -0.9 °F 1.0 °F 70% 29.90 in 1.8 mi Variable 5.8 mph 23.0 mph 0.00 in Snow Light Snow
7:12 PM 8.6 °F -8.9 °F -0.4 °F 67% 29.84 in 2.5 mi West 16.1 mph 31.1 mph 0.00 in Snow Light Snow
7:20 PM 8.6 °F -8.3 °F -2.2 °F 62% 29.85 in 3.0 mi WNW 15.0 mph 29.9 mph 0.00 in Snow Light Snow
7:39 PM 6.8 °F -8.6 °F -4.0 °F 61% 29.86 in 10.0 mi WNW 11.5 mph 26.5 mph 0.00 in   Overcast
7:53 PM 7.0 °F -3.3 °F -5.1 °F 58% 29.96 in 10.0 mi Variable 5.8 mph 21.9 mph 0.00 in   Overcast
8:12 PM 6.8 °F -5.9 °F -2.2 °F 67% 29.90 in 2.0 mi WNW 8.1 mph 20.7 mph 0.00 in Snow Light Snow
8:18 PM 6.8 °F -4.8 °F -0.4 °F 72% 29.90 in 1.0 mi Variable 6.9 mph - 0.00 in Snow Light Snow
8:30 PM 5.0 °F -9.1 °F -2.2 °F 72% 29.91 in 2.0 mi NW 9.2 mph - 0.00 in Snow Light Snow
8:35 PM 5.0 °F -10.8 °F -5.8 °F 61% 29.92 in 8.0 mi NW 11.5 mph 23.0 mph 0.00 in Snow Light Snow
8:53 PM 3.9 °F -9.4 °F -7.1 °F 60% 30.01 in 10.0 mi NW 8.1 mph 16.1 mph 0.00 in   Overcast
9:53 PM 3.0 °F -13.3 °F -6.0 °F 66% 30.06 in 10.0 mi WNW 11.5 mph 24.2 mph N/A   Overcast
10:34 PM 1.4 °F -13.5 °F -7.6 °F 66% 30.02 in 10.0 mi WNW 9.2 mph 16.1 mph N/A   Overcast
10:53 PM 1.9 °F -10.6 °F -8.0 °F 63% 30.10 in 10.0 mi Variable 6.9 mph 21.9 mph N/A   Mostly Cloudy
11:00 PM 1.4 °F -12.5 °F -7.6 °F 66% 30.03 in 10.0 mi WNW 8.1 mph 19.6 mph N/A   Scattered Clouds
11:53 PM 1.0 °F -10.3 °F -9.0 °F 63% 30.13 in 10.0 mi Variable 5.8 mph - N/A   Clear